Regional Weather Roundup
Issued by NWS

Home | Current Version | Previous Version | Graphics & Text | Print | Product List | Glossary Off
Versions: 1 2 3 4 5 6 7 8 9 10 11 12 13 14 15 16 17 18 19 20 21 22 23 24 25 26 27 28 29 30 31 32 33 34 35 36 37 38 39 40 41 42 43 44 45 46 47 48 49 50

000
ASUS43 KTOP 220308
RWRKS

WEATHER ROUNDUP FOR KANSAS
NATIONAL WEATHER SERVICE GOODLAND KS
1000 PM CDT SAT OCT 21 2017

NOTE:  "FAIR" INDICATES FEW OR NO CLOUDS BELOW 12,000 FEET WITH NO
SIGNIFICANT WEATHER AND/OR OBSTRUCTIONS TO VISIBILITY.

KSZ001>006-013>018-027>032-041>047-220400-
NORTHWEST KANSAS

CITY           SKY/WX    TMP DP  RH WIND       PRES   REMARKS
GOODLAND       CLEAR     41  18  39 NW8       30.08R
HAYS           PTCLDY    47  37  68 N5        30.03R
HILL CITY      CLEAR     40  35  83 CALM      30.04R
RUSSELL        CLOUDY    49  41  74 N8        30.01R
$$

KSZ061>065-074>080-084>089-220400-
SOUTHWEST KANSAS

CITY           SKY/WX    TMP DP  RH WIND       PRES   REMARKS
DODGE CITY     CLEAR     42  32  67 N6        30.02R
ELKHART          N/A     46  22  38 NW5         N/A
GARDEN CITY    CLEAR     42  25  50 N8        30.04R
GREAT BEND     CLOUDY    53  40  61 N10       30.02R
LIBERAL        CLEAR     41  31  67 NW9       30.05R
PRATT          CLOUDY    55  37  51 N10       30.00R
$$

KSZ066>073-081>083-090>101-220400-
SOUTHEAST KANSAS

CITY           SKY/WX    TMP DP  RH WIND       PRES   REMARKS
CHANUTE        RAIN      58  56  93 N14       29.93R
COFFEYVILLE    TSTM      59  59 100 CALM      29.93R FOG
HUTCHINSON     CLOUDY    58  40  51 N14G23    29.98R
MEDICINE LODGE   N/A     59  35  40 N17G26    29.97R
NEWTON         CLOUDY    55  45  68 N15       29.99R
PARSONS        TSTM      58  57  97 N6        29.92R FOG
WICHITA INTL   TSTM      57  53  86 N12G20    29.94R
WICHITA JABRA  RAIN      54  52  93 NE12      29.94F
WICHITA MCCONL RAIN      55  50  82 NE17      29.92F
WINFIELD       RAIN      55  53  93 NE17      29.94F FOG
$$

KSZ007>012-019>026-033>040-048>060-102>105-220400-
NORTHEAST KANSAS

CITY           SKY/WX    TMP DP  RH WIND       PRES   REMARKS
CONCORDIA      MOCLDY    51  41  68 N5        30.01R
EMPORIA        RAIN      53  50  89 N9        29.98R
LAWRENCE       TSTM      57  55  93 NW13      29.92F
MANHATTAN      CLOUDY    59  42  53 N9        29.99R
MARYSVILLE     CLOUDY    54  41  62 N7        30.00R
OLATHE IND     LGT RAIN  56  55  97 N16G23    29.91S
OLATHE EXE     LGT RAIN  56  55  97 N17G24    29.90S
SALINA         CLOUDY    58  41  53 N13       30.00R
TOPEKA BILLARD RAIN      54  53  97 NW6       29.97R
TOPEKA FORBES  TSTM      54  52  93 N9        29.99R FOG
$$




USA.gov is the U.S. government's official web portal to all federal, state and local government web resources and services.